Regional Weather Roundup
Issued by NWS Tiyan, Guam

Home | Current Version | Previous Version | Text Only | Print | Product List | Glossary On
Versions: 1 2 3 4 5 6 7 8 9 10 11 12 13 14 15 16 17 18 19 20 21 22 23 24 25 26 27 28 29 30 31 32 33 34 35 36 37 38 39 40 41 42 43 44 45 46 47 48 49 50
000
ASGM40 PGUM 310012
RWRGUM
WEATHER ROUNDUP FOR THE MARIANAS
NATIONAL WEATHER SERVICE TIYAN GU
1000 AM CHST SUN AUG 31 2014

GUZ001>004-310100-
MARIANA ISLANDS-

CITY           SKY/WX    TMP DP  RH WIND       PRES   REMARKS
GUAM AIRPORT   MOSUNNY   88  77  70 E6        29.79S HX 100
ANDERSEN AFB   MOSUNNY   82  72  69 SE7       29.80S
ROTA AIRPORT   PTSUNNY   84  77  79 SE8       29.80R HX  94
TINIAN AP      PTSUNNY   81  79  94 E5        29.79R
SAIPAN AP      MOSUNNY   82  79  89 NW3       29.80R HX  93

$$



USA.gov is the U.S. government's official web portal to all federal, state and local government web resources and services.